Location: Hungerford
(51.4167°N, 1.5167°W)
Time: 16:42:44
(UTC+00:00)

Resurs 01 Rocket - Pass Details

Date: 18 September 2020
Orbit: 633 x 645 km, 98.0° (Epoch: 30 October)

Event Time Altitude Azimuth Distance (km) Brightness Sun altitude
Exits shadow 19:19:14 15° 101° (E) 1,718 3.2 -11.0°
Maximum altitude 19:21:35 23° 61° (ENE) 1,385 3.0 -11.4°
Drops below altitude 10° 19:25:04 10° 9° (N) 2,055 4.3 -11.9°
Sets 19:27:38 0° 355° (N) 2,968 5.4 -12.3°
